DW8209 Gubbio IT current weather conditions

sailwx.info

Wind from 084 at 0 knots gusting 2

Air temperature 26.7° C
Dewpoint 21.6° C

Last reported at 2016-Jun-25 07:40 UTC.
Time now 2016-Jun-25 08:56 UTC

Location: N 43°19' E 012°34'.
View on Google Maps.

See reports from other nearby stations

  
Tides and Currents Weather Stations Pressure Air Temp Water Temp Dewpoint Dewpoint Depression Visibility Wind Speed Wind Dir Waves Ship Positions
date/time (UTC)wind fromknots sea level pressurealtimeterstation pressurevisibilityair tempwater tempwave heightnotes
2016-Jun-25 07:40 084 0 gusting 2 26.7
2016-Jun-25 07:25 091 27.2
2016-Jun-25 07:09 146 26.7
2016-Jun-25 06:54 111 25.0
2016-Jun-25 06:39 156 23.3
2016-Jun-25 06:24 096 22.2
2016-Jun-25 06:09 351 21.1
2016-Jun-25 05:54 301 20.0
2016-Jun-25 05:39 253 18.9
2016-Jun-25 05:24 253 18.3
2016-Jun-25 05:09 139 18.3
2016-Jun-25 04:54 131 18.3
2016-Jun-25 04:39
2016-Jun-25 04:24
2016-Jun-25 04:09
2016-Jun-25 03:54
2016-Jun-25 03:39
2016-Jun-25 03:24
2016-Jun-25 03:09 143 18.3
2016-Jun-25 02:54 131 18.3
2016-Jun-25 02:39 131 18.3
2016-Jun-25 02:25 131 18.3
2016-Jun-25 02:08 127 0 gusting 0 18.3
2016-Jun-25 01:53 129 18.3
2016-Jun-25 01:38 248 18.9
2016-Jun-25 01:24 256 18.9
2016-Jun-25 01:08 256 18.9
2016-Jun-25 00:53 264 18.9
2016-Jun-25 00:38 265 18.9
2016-Jun-25 00:23 309 0 gusting 2 18.9
2016-Jun-25 00:08 283 1 gusting 1 18.9
2016-Jun-24 23:53 274 19.4
2016-Jun-24 23:38 274 19.4
2016-Jun-24 23:23 274 0 gusting 1 20.0
2016-Jun-24 23:08 293 0 gusting 1 20.0
2016-Jun-24 22:53 108 20.0
2016-Jun-24 22:38 108 20.0
2016-Jun-24 22:23 111 20.6
2016-Jun-24 22:08 282 20.6
2016-Jun-24 21:53 290 21.1
2016-Jun-24 21:39 304 21.1
2016-Jun-24 21:23 274 21.7
2016-Jun-24 21:08 235 22.2
2016-Jun-24 20:53 149 21.7
2016-Jun-24 20:39 194 22.2
2016-Jun-24 20:23 293 22.2
2016-Jun-24 20:10 288 22.8
2016-Jun-24 19:57 293 23.3
2016-Jun-24 19:45 195 23.9
2016-Jun-24 19:33 265 25.0
2016-Jun-24 19:23 264 25.0
2016-Jun-24 18:54 077 26.1
2016-Jun-24 18:40 094 0 gusting 2 26.7
2016-Jun-24 18:25 067 1 gusting 4 27.2
2016-Jun-24 18:08 053 4 gusting 6 27.8
2016-Jun-24 17:53 050 2 gusting 5 28.3
2016-Jun-24 17:38 005 2 gusting 6 28.3
2016-Jun-24 17:23 050 4 gusting 5 28.9
2016-Jun-24 17:08 060 2 gusting 5 29.4
2016-Jun-24 16:53 078 1 gusting 6 29.4
2016-Jun-24 16:38 061 6 gusting 8 29.4
2016-Jun-24 16:23 067 6 gusting 7 30.0
2016-Jun-24 16:08 067 3 gusting 6 30.0
2016-Jun-24 15:53 037 4 gusting 6 30.6
2016-Jun-24 15:37 025 6 gusting 8 30.6
2016-Jun-24 15:23 032 5 gusting 8 30.6
2016-Jun-24 15:07 027 5 gusting 8 30.6
2016-Jun-24 14:53 022 7 gusting 12 31.1
2016-Jun-24 14:40 065 6 gusting 14 30.6
2016-Jun-24 14:24 065 5 gusting 9 31.1
2016-Jun-24 14:08 103 5 gusting 7 31.1
2016-Jun-24 13:53 063 2 gusting 8 31.1
2016-Jun-24 13:38 013 2 gusting 7 30.6
2016-Jun-24 13:23 016 2 gusting 7 30.6
2016-Jun-24 13:08 056 6 gusting 9 31.1
2016-Jun-24 12:53 079 6 gusting 8 31.1
2016-Jun-24 12:37 051 2 gusting 6 31.1
2016-Jun-24 12:22 071 3 gusting 6 31.1
2016-Jun-24 12:08 083 3 gusting 6 30.6
2016-Jun-24 11:53 130 2 gusting 6 30.6
2016-Jun-24 11:38 061 5 gusting 7 30.6
2016-Jun-24 11:24 103 4 gusting 6 30.6
2016-Jun-24 11:07 084 3 gusting 9 30.0
2016-Jun-24 10:53 088 6 gusting 9 30.0
2016-Jun-24 10:37 082 4 gusting 7 30.0
2016-Jun-24 10:22 060 3 gusting 6 30.0
2016-Jun-24 10:07 058 3 gusting 6 29.4
2016-Jun-24 09:53 065 3 29.4
2016-Jun-24 09:39 039 2 gusting 6 29.4
2016-Jun-24 09:26 120 2 gusting 6 28.9
2016-Jun-24 09:11 007 28.9
2016-Jun-24 08:54 051 4 gusting 6 28.3
2016-Jun-24 08:37 046 28.3
2016-Jun-24 08:22 054 0 gusting 2 28.3
2016-Jun-24 08:11 039 1 gusting 3 27.8
2016-Jun-24 07:51 345 28.3
2016-Jun-24 07:37 233 28.3
2016-Jun-24 07:21 229 27.8
2016-Jun-24 07:07 231 26.7
2016-Jun-24 06:51 268 25.6
2016-Jun-24 06:37 281 26.1
2016-Jun-24 06:21 280 23.9
2016-Jun-24 06:07 273 22.2
2016-Jun-24 05:51 273 20.6
2016-Jun-24 05:36 271 20.0
2016-Jun-24 05:21 295 19.4
2016-Jun-24 05:06 294 18.3
2016-Jun-24 04:51 294 16.7
2016-Jun-24 04:36 316 16.1
2016-Jun-24 04:21
2016-Jun-24 04:06
2016-Jun-24 03:51
2016-Jun-24 03:36 307 15.0
2016-Jun-24 03:21 307 15.0
2016-Jun-24 03:05 306 15.0
2016-Jun-24 02:50 288 1 gusting 2 15.6
2016-Jun-24 02:36 300 0 gusting 1 15.6
2016-Jun-24 02:21 150 15.6
2016-Jun-24 02:05 229 15.6
2016-Jun-24 01:50 229 16.1
2016-Jun-24 01:35 324 16.1
2016-Jun-24 01:20 264 16.1
2016-Jun-24 01:06 224 1 gusting 1 16.7
2016-Jun-24 00:51 287 0 gusting 2 16.7
2016-Jun-24 00:36 084 16.7
2016-Jun-24 00:20 084 16.7
2016-Jun-24 00:06 083 0 gusting 2 16.7
2016-Jun-23 23:50 217 17.2
2016-Jun-23 23:37 252 17.2
2016-Jun-23 23:20 066 17.8
2016-Jun-23 23:05 166 17.2
2016-Jun-23 22:52 003 0 gusting 1 17.8
2016-Jun-23 22:36 338 17.8
2016-Jun-23 22:21 154 17.8
2016-Jun-23 22:07 155 17.8
2016-Jun-23 21:52 108 18.3
2016-Jun-23 21:36 123 18.3
2016-Jun-23 21:20 114 18.9
2016-Jun-23 21:06 134 0 gusting 0 18.9
2016-Jun-23 20:51 283 0 gusting 1 19.4
2016-Jun-23 20:35 195 19.4
2016-Jun-23 20:20 156 20.0
2016-Jun-23 20:05 187 21.1
2016-Jun-23 19:50 153 21.7
2016-Jun-23 19:35 127 22.8
2016-Jun-23 19:20 205 23.3
2016-Jun-23 19:05 193 1 gusting 3 24.4
2016-Jun-23 18:50 338 25.6
2016-Jun-23 18:35 034 0 gusting 2 25.6
2016-Jun-23 18:21 359 26.7
2016-Jun-23 18:05 358 26.7
2016-Jun-23 17:50 343 2 gusting 5 26.7
2016-Jun-23 17:35 013 3 gusting 7 27.2
2016-Jun-23 17:21 027 4 gusting 6 27.2
2016-Jun-23 17:04 351 4 gusting 6 27.8
2016-Jun-23 16:49 026 3 gusting 6 27.8
2016-Jun-23 16:36 005 3 gusting 6 28.3
2016-Jun-23 16:20 069 3 gusting 6 28.3
2016-Jun-23 16:04 073 5 gusting 7 28.3
2016-Jun-23 15:51 026 3 gusting 7 28.3
2016-Jun-23 15:34 030 4 gusting 7 28.3
2016-Jun-23 15:20 026 5 gusting 7 28.3
2016-Jun-23 15:06 360 5 gusting 7 28.9
2016-Jun-23 14:51 009 5 gusting 7 28.9
2016-Jun-23 14:35 025 7 gusting 11 28.9
2016-Jun-23 14:20 044 7 gusting 9 28.9
2016-Jun-23 14:05 022 6 gusting 9 28.9
2016-Jun-23 13:49 048 6 gusting 8 28.9
2016-Jun-23 13:34 026 3 gusting 8 28.9
2016-Jun-23 13:19 036 6 gusting 9 28.9
2016-Jun-23 13:04 025 4 gusting 6 28.9
2016-Jun-23 12:51 050 6 gusting 10 28.9
2016-Jun-23 12:34 056 3 gusting 7 28.9
2016-Jun-23 12:20 020 7 gusting 11 28.3
2016-Jun-23 12:04 028 4 gusting 8 28.3
2016-Jun-23 11:49 060 6 gusting 10 28.3
2016-Jun-23 11:34 039 6 gusting 8 28.3
2016-Jun-23 11:19 041 6 gusting 9 28.3
2016-Jun-23 11:04 035 5 gusting 10 27.8
2016-Jun-23 10:49 069 4 gusting 9 27.8
2016-Jun-23 10:34 029 6 gusting 13 27.2
2016-Jun-23 10:19 037 7 gusting 13 27.2
2016-Jun-23 10:04 040 7 gusting 12 27.2
2016-Jun-23 09:49 053 8 gusting 11 27.2
2016-Jun-23 09:34 039 6 gusting 11 26.7
2016-Jun-23 09:19 058 6 gusting 12 26.7
2016-Jun-23 09:04 050 3 gusting 7 26.7
2016-Jun-23 08:49 059 5 gusting 9 26.1
2016-Jun-23 08:34 059 7 gusting 11 26.1
2016-Jun-23 08:19 054 2 gusting 6 26.1
2016-Jun-23 08:05 027 3 gusting 5 25.6